TimeCDT,TemperatureF,Dew PointF,Humidity,Sea Level PressureIn,VisibilityMPH,Wind Direction,Wind SpeedMPH,Gust SpeedMPH,PrecipitationIn,Events,Conditions,WindDirDegrees,DateUTC
12:53 AM,80.1,72.0,76,30.02,10.0,South,8.1,-,N/A,,Clear,180,2013-06-25 05:53:00
1:53 AM,79.0,72.0,79,30.01,10.0,South,8.1,-,N/A,,Clear,180,2013-06-25 06:53:00
2:53 AM,79.0,72.0,79,30.02,10.0,South,9.2,-,N/A,,Clear,180,2013-06-25 07:53:00
3:53 AM,78.1,72.0,81,30.02,10.0,SSW,6.9,-,N/A,,Clear,200,2013-06-25 08:53:00
4:53 AM,78.1,72.0,81,30.03,10.0,SSW,6.9,-,N/A,,Clear,210,2013-06-25 09:53:00
5:53 AM,77.0,72.0,84,30.03,10.0,South,6.9,-,N/A,,Clear,190,2013-06-25 10:53:00
6:53 AM,78.1,72.0,81,30.04,10.0,South,5.8,-,N/A,,Clear,180,2013-06-25 11:53:00
7:53 AM,81.0,72.0,74,30.04,10.0,SSW,12.7,18.4,N/A,,Clear,210,2013-06-25 12:53:00
8:53 AM,82.9,72.0,69,30.05,10.0,SW,11.5,20.7,N/A,,Clear,230,2013-06-25 13:53:00
9:53 AM,86.0,73.0,65,30.04,10.0,SW,9.2,19.6,N/A,,Clear,230,2013-06-25 14:53:00
10:53 AM,87.1,72.0,61,30.04,10.0,SW,10.4,21.9,N/A,,Partly Cloudy,230,2013-06-25 15:53:00
11:53 AM,88.0,72.0,59,30.04,10.0,WSW,11.5,23.0,N/A,,Partly Cloudy,240,2013-06-25 16:53:00
12:53 PM,91.0,71.1,52,30.03,10.0,SW,12.7,24.2,N/A,,Scattered Clouds,230,2013-06-25 17:53:00
1:53 PM,93.0,69.1,45,30.01,10.0,SSW,15.0,24.2,N/A,,Partly Cloudy,200,2013-06-25 18:53:00
2:53 PM,93.0,70.0,47,29.99,10.0,SSW,15.0,21.9,N/A,,Mostly Cloudy,200,2013-06-25 19:53:00
3:53 PM,90.0,70.0,52,29.97,10.0,SW,11.5,21.9,N/A,,Mostly Cloudy,220,2013-06-25 20:53:00
4:05 PM,84.2,73.4,70,30.00,2.0,SW,8.1,18.4,0.07,Rain-Thunderstorm,Heavy Thunderstorms and Rain,230,2013-06-25 21:05:00
4:12 PM,82.4,73.4,74,29.98,1.5,Variable,3.5,18.4,0.13,Rain-Thunderstorm,Light Thunderstorms and Rain,0,2013-06-25 21:12:00
4:17 PM,82.4,73.4,74,29.98,3.0,ENE,5.8,-,0.16,Rain-Thunderstorm,Light Thunderstorms and Rain,70,2013-06-25 21:17:00
4:53 PM,82.0,73.0,74,29.97,10.0,SSE,6.9,-,0.18,Rain-Thunderstorm,Light Rain,160,2013-06-25 21:53:00
5:16 PM,86.0,75.2,70,29.96,10.0,SE,3.5,-,0.00,,Mostly Cloudy,140,2013-06-25 22:16:00
5:53 PM,86.0,75.0,70,29.94,10.0,South,8.1,-,0.00,,Overcast,180,2013-06-25 22:53:00
6:53 PM,86.0,70.0,59,29.91,10.0,South,12.7,-,N/A,,Mostly Cloudy,190,2013-06-25 23:53:00
7:53 PM,84.9,66.9,55,29.91,10.0,SSW,9.2,-,N/A,,Clear,200,2013-06-26 00:53:00
8:53 PM,82.9,64.9,54,29.90,10.0,South,9.2,-,N/A,,Clear,190,2013-06-26 01:53:00
9:53 PM,80.1,66.9,64,29.92,10.0,South,6.9,-,N/A,,Clear,190,2013-06-26 02:53:00
10:53 PM,79.0,68.0,69,29.93,10.0,South,6.9,-,N/A,,Clear,180,2013-06-26 03:53:00
11:53 PM,77.0,69.1,76,29.93,10.0,South,5.8,-,N/A,,Clear,180,2013-06-26 04:53:00